{"data":{"norad_id":47632,"epoch":"2026-09-20T03:38:37.538304Z","epoch_age_seconds":55760,"freshness":"FRESH","line1":"1 47632U 21012N   26263.15182336 -.00000414  00000+0 -15589-5 0  9999","line2":"2 47632  53.1588 147.7098 0001119  84.9597 275.1532 15.31718196311152","mean_motion":15.31718196,"eccentricity":0.0001119,"inclination_deg":53.1588,"raan_deg":147.7098,"arg_perigee_deg":84.9597,"mean_anomaly_deg":275.1532,"bstar":-1.5589e-6,"rev_number":31115,"period_min":94.012071134265,"perigee_km":469.91937116724,"apogee_km":471.45213769968,"semimajor_km":6848.8227544335,"source":"CELESTRAK","updated_at":"2026-09-20T09:00:38.597972Z"}}